Tracking 35274 objects as of 12-Sep-2026
HD Live streaming from Space Station
objects crossing your sky now

STARLINK-2540


STARLINK-2540 is no longer on orbit
STARLINK-2540 is classified as:


NORAD ID: 48290
Int'l Code: 2021-036Q
Launch date: April 29, 2021
Source: United States (US)
Launch site: AIR FORCE EASTERN TEST RANGE (AFETR)
Decay date: 2026-01-13
Your satellite tracking list
Your tracking list is empty




NASA's NSSDC Master Catalog

Two Line Element Set (TLE):
1 48290U 21036Q   26013.73557935  .13297263  12472-4  33760-3 0  9996
2 48290  53.0304 292.7660 0004390 227.1640 132.9040 16.45769045260521
Source of the keplerian elements: AFSPC